Date,TemperatureHighF,TemperatureAvgF,TemperatureLowF,DewpointHighF,DewpointAvgF,DewpointLowF,HumidityHigh,HumidityAvg,HumidityLow,PressureMaxIn,PressureMinIn,WindSpeedMaxMPH,WindSpeedAvgMPH,GustSpeedMaxMPH,PrecipitationSumIn
2013-2-1,58,37,-76,100,25,-45,90,64,35,29.73,29.64,166,3,166,0.00
2013-2-2,54,34,-40,32,23,-44,90,66,37,29.73,29.61,47,2,152,0.00
2013-2-3,140,45,29,100,28,21,100,57,35,29.61,29.52,50,4,50,0.00
2013-2-4,57,42,-40,50,23,-58,100,48,35,30.38,29.28,137,4,137,0.00
2013-2-5,54,40,-40,28,22,-50,64,48,36,29.37,29.14,36,5,36,0.00
2013-2-6,51,38,28,26,21,-18,75,52,9,29.43,29.25,50,3,50,0.00
2013-2-7,100,37,-10,100,18,-24,100,47,23,29.40,29.22,67,3,92,0.00
2013-2-8,82,31,17,82,17,11,100,59,37,29.49,29.40,12,3,152,0.00
2013-2-9,64,30,-40,25,17,-51,81,60,37,29.52,29.43,50,2,50,0.00
2013-2-10,54,34,-40,28,20,-57,86,59,36,29.58,27.54,37,2,63,0.00
2013-2-11,55,34,17,29,19,1,90,58,36,29.64,20.36,139,4,154,0.00
2013-2-12,56,38,24,30,23,-62,84,58,2,31.73,27.92,40,4,89,0.00
2013-2-13,70,38,29,58,24,21,82,60,22,29.78,29.67,97,4,134,0.00
2013-2-14,59,38,-76,100,25,-63,91,64,35,29.78,29.73,141,3,141,0.00
2013-2-15,64,41,24,36,27,21,96,64,34,29.78,29.55,63,4,92,0.00
2013-2-16,60,39,27,32,24,-9,92,59,35,29.58,29.43,23,7,67,0.00
2013-2-17,52,36,23,26,18,13,70,49,36,29.49,29.34,13,5,13,0.00
2013-2-18,45,35,23,21,18,15,81,53,38,29.34,29.14,9,1,9,0.00
2013-2-19,50,40,23,25,18,14,69,43,37,29.19,29.02,14,3,14,0.00
2013-2-20,50,32,16,24,17,10,85,56,37,29.28,29.19,20,4,20,0.00
2013-2-21,42,35,25,20,18,16,72,50,39,29.40,29.28,28,7,28,0.00
2013-2-22,49,39,31,27,21,16,74,50,38,29.37,29.10,25,7,25,0.00
2013-2-23,47,34,27,22,16,12,64,47,38,29.34,20.36,23,9,23,0.00
2013-2-24,51,34,19,26,17,12,75,52,37,29.28,20.36,13,4,13,0.00
2013-2-25,48,37,29,30,20,15,81,50,38,30.20,20.36,28,10,28,0.00
2013-2-26,53,44,34,27,20,14,43,38,36,30.23,30.11,36,4,36,0.00
2013-2-27,54,32,-76,100,17,8,80,47,36,30.20,30.14,8,3,8,0.00
2013-2-28,86,49,32,86,32,23,100,54,37,30.35,27.95,135,6,135,0.00